Madisonville, KY

6:50 PM CST on December 15, 2019 (GMT -0600)
Madisonville

Weather History for K2I0 - October, 2019

Change the Weather History Date:

Sunday, October 27, 2019

  Actual Average (WUND) Record (WUND)
Temperature  
Mean Temperature 59 °F -  
Max Temperature 68 °F - - (-1)
Min Temperature 50 °F - - (-1)
Degree Days  
Heating Degree Days 6    
Growing Degree Days 9 (Base 50)    
Moisture  
Dew Point 47 °F    
Average Humidity 69    
Maximum Humidity 85    
Minimum Humidity 40    
Precipitation  
Precipitation 0.00 in - - ()
Sea Level Pressure  
Sea Level Pressure 29.99 in    
Wind  
Wind Speed 6 mph ()    
Max Wind Speed 15 mph    
Max Gust Speed 22 mph    
Visibility 10.0 miles    
Events      
Averages and records for this station are not official NWS values.
T = Trace of Precipitation, MM = Missing Value Source: Averaged Metar Reports

Daily Weather History Graph

Daily Weather History Graph

Search for Another Location

Airport or City:

Astronomy

Oct. 27, 2019 Rise Set
Actual Time 7:08 AM CDT 5:57 PM CDT
Civil Twilight 6:42 AM CDT 6:24 PM CDT
Nautical Twilight 6:11 AM CDT 6:54 PM CDT
Astronomical Twilight 5:41 AM CDT 7:25 PM CDT
Moon 6:19 AM CDT (10/27) 6:05 PM CDT (10/27)
Length of Visible Light 11h 41m
Length of Day
10h 48m
Waning Crescent, 0% of the Moon is Illuminated
Oct 27
Waning Crescent
Oct 27
New
Nov 4
First Quarter
Nov 12
Full
Nov 19
Last Quarter

Hourly Weather History & Observations

Time (CDT) Temp. Dew Point Humidity Pressure Visibility Wind Dir Wind Speed Gust Speed Precip Events Conditions
12:15 AM 56.5 °F 50.0 °F 79% 29.80 in 10.0 mi West 15.0 mph 21.9 mph N/A   Overcast
12:35 AM 56.5 °F 50.2 °F 79% 29.82 in 10.0 mi West 13.8 mph 18.4 mph N/A   Overcast
12:55 AM 56.5 °F 50.4 °F 80% 29.83 in 10.0 mi West 10.4 mph 18.4 mph N/A   Overcast
1:15 AM 56.3 °F 50.4 °F 80% 29.84 in 10.0 mi West 10.4 mph 17.3 mph N/A   Overcast
1:35 AM 56.3 °F 50.4 °F 80% 29.85 in 10.0 mi West 11.5 mph - N/A   Overcast
1:55 AM 56.3 °F 50.5 °F 81% 29.86 in 10.0 mi West 11.5 mph - N/A   Overcast
2:15 AM 56.3 °F 50.7 °F 82% 29.86 in 10.0 mi West 10.4 mph - N/A   Overcast
2:35 AM 56.3 °F 50.9 °F 82% 29.86 in 10.0 mi West 6.9 mph 10.4 mph N/A   Overcast
2:55 AM 56.3 °F 50.9 °F 82% 29.87 in 10.0 mi West 6.9 mph - N/A   Overcast
3:15 AM 56.3 °F 50.9 °F 82% 29.88 in 10.0 mi West 6.9 mph - N/A   Overcast
3:35 AM 56.3 °F 50.9 °F 82% 29.89 in 10.0 mi West 5.8 mph - N/A   Overcast
3:55 AM 55.8 °F 50.5 °F 83% 29.89 in 10.0 mi NW 5.8 mph - N/A   Overcast
4:15 AM 55.4 °F 49.5 °F 80% 29.89 in 10.0 mi WNW 4.6 mph - N/A   Overcast
4:35 AM 53.8 °F 48.7 °F 83% 29.90 in 10.0 mi WNW 4.6 mph - N/A   Mostly Cloudy
4:55 AM 53.8 °F 49.1 °F 84% 29.91 in 10.0 mi WNW 3.5 mph - N/A   Mostly Cloudy
5:15 AM 53.6 °F 49.1 °F 85% 29.93 in 10.0 mi NW 3.5 mph - N/A   Overcast
5:35 AM 53.6 °F 48.7 °F 84% 29.93 in 10.0 mi NW 4.6 mph - N/A   Overcast
5:55 AM 53.6 °F 48.4 °F 82% 29.95 in 10.0 mi NW 5.8 mph - N/A   Overcast
6:15 AM 53.6 °F 47.8 °F 81% 29.96 in 10.0 mi NW 6.9 mph - N/A   Overcast
6:35 AM 53.1 °F 46.6 °F 79% 29.96 in 10.0 mi NW 11.5 mph - N/A   Overcast
6:55 AM 52.3 °F 45.9 °F 79% 29.97 in 10.0 mi NW 9.2 mph - N/A   Overcast
7:15 AM 52.3 °F 45.7 °F 78% 29.98 in 10.0 mi WNW 8.1 mph - N/A   Overcast
7:35 AM 51.8 °F 45.5 °F 79% 29.99 in 10.0 mi WNW 6.9 mph - N/A   Overcast
7:55 AM 50.9 °F 45.5 °F 82% 30.01 in 10.0 mi Calm Calm - N/A   Scattered Clouds
8:15 AM 52.5 °F 46.0 °F 79% 30.01 in 10.0 mi West 3.5 mph - N/A   Clear
8:35 AM 53.4 °F 45.9 °F 76% 30.02 in 10.0 mi WNW 3.5 mph - N/A   Clear
9:15 AM 54.5 °F 45.9 °F 73% 30.03 in 10.0 mi WSW 3.5 mph - N/A   Scattered Clouds
9:35 AM 55.0 °F 45.7 °F 71% 30.04 in 10.0 mi WSW 3.5 mph - N/A   Scattered Clouds
9:55 AM 56.1 °F 45.9 °F 68% 30.04 in 10.0 mi Calm Calm - N/A   Scattered Clouds
10:15 AM 57.2 °F 46.4 °F 67% 30.04 in 10.0 mi Calm Calm - N/A   Scattered Clouds
10:35 AM 58.1 °F 46.0 °F 64% 30.04 in 10.0 mi Calm Calm - N/A   Scattered Clouds
10:55 AM 59.7 °F 46.0 °F 61% 30.04 in 10.0 mi Calm Calm - N/A   Scattered Clouds
11:15 AM 59.7 °F 45.1 °F 59% 30.05 in 10.0 mi Calm Calm - N/A   Scattered Clouds
11:35 AM 61.0 °F 45.0 °F 56% 30.05 in 10.0 mi Calm Calm - N/A   Clear
11:55 AM 61.7 °F 45.0 °F 54% 30.05 in 10.0 mi Calm Calm - N/A   Clear
12:15 PM 63.0 °F 45.3 °F 53% 30.05 in 10.0 mi WNW 4.6 mph - N/A   Clear
12:35 PM 63.5 °F 45.0 °F 51% 30.04 in 10.0 mi Calm Calm - N/A   Clear
12:55 PM 64.4 °F 45.9 °F 51% 30.04 in 10.0 mi North 3.5 mph - N/A   Clear
1:15 PM 65.3 °F 45.1 °F 48% 30.03 in 10.0 mi WSW 4.6 mph - N/A   Clear
1:35 PM 64.9 °F 43.7 °F 46% 30.03 in 10.0 mi Calm Calm - N/A   Clear
2:15 PM 66.7 °F 42.8 °F 42% 30.02 in 10.0 mi Calm Calm - N/A   Clear
2:35 PM 67.5 °F 42.8 °F 41% 30.02 in 10.0 mi Calm Calm - N/A   Clear
2:55 PM 67.3 °F 42.4 °F 40% 30.02 in 10.0 mi SW 4.6 mph - N/A   Clear
3:35 PM 68.5 °F 43.3 °F 40% 30.02 in 10.0 mi South 3.5 mph - N/A   Clear
3:55 PM 68.7 °F 43.9 °F 41% 30.03 in 10.0 mi Calm Calm - N/A   Clear
4:15 PM 68.0 °F 42.6 °F 40% 30.03 in 10.0 mi Calm Calm - N/A   Clear
4:35 PM 68.2 °F 42.8 °F 40% 30.02 in 10.0 mi Calm Calm - N/A   Clear
4:55 PM 68.2 °F 42.8 °F 40% 30.02 in 10.0 mi Calm Calm - N/A   Clear
5:15 PM 67.5 °F 42.6 °F 41% 30.02 in 10.0 mi Calm Calm - N/A   Clear
5:35 PM 66.2 °F 44.1 °F 45% 30.02 in 10.0 mi Calm Calm - N/A   Clear
5:55 PM 63.9 °F 45.5 °F 51% 30.02 in 10.0 mi Calm Calm - N/A   Clear
6:15 PM 60.6 °F 46.4 °F 59% 30.02 in 10.0 mi Calm Calm - N/A   Clear
6:55 PM 57.4 °F 47.1 °F 69% 30.04 in 10.0 mi SSW 5.8 mph - N/A   Clear
7:15 PM 58.6 °F 47.3 °F 66% 30.04 in 10.0 mi SSW 3.5 mph - N/A   Clear
7:35 PM 55.8 °F 47.3 °F 73% 30.04 in 10.0 mi Calm Calm - N/A   Clear
7:55 PM 54.9 °F 47.7 °F 77% 30.04 in 10.0 mi Calm Calm - N/A   Clear
8:15 PM 53.8 °F 47.7 °F 80% 30.05 in 10.0 mi Calm Calm - N/A   Clear
8:35 PM 52.9 °F 46.8 °F 80% 30.05 in 10.0 mi Calm Calm - N/A   Clear
8:55 PM 52.7 °F 47.5 °F 82% 30.06 in 10.0 mi Calm Calm - N/A   Clear
9:15 PM 52.3 °F 47.3 °F 83% 30.06 in 10.0 mi Calm Calm - N/A   Clear
9:35 PM 53.8 °F 49.3 °F 85% 30.08 in 10.0 mi SSW 4.6 mph - N/A   Clear
9:55 PM 52.2 °F 47.5 °F 84% 30.09 in 10.0 mi SW 5.8 mph - N/A   Clear
10:15 PM 51.4 °F 46.4 °F 83% 30.09 in 10.0 mi WSW 5.8 mph - N/A   Clear
10:35 PM 52.0 °F 47.1 °F 83% 30.08 in 10.0 mi SW 4.6 mph - N/A   Clear
10:55 PM 52.0 °F 47.7 °F 85% 30.08 in 10.0 mi WSW 6.9 mph - N/A   Clear
11:15 PM 51.8 °F 47.5 °F 85% 30.08 in 10.0 mi SW 4.6 mph - N/A   Clear